Overview Statistics Trail Chart Weather Telemetry Raw packets
 

This is the latest recevied weather packets stored in our database for station/object VE8SKI. If no packets are shown the sender has not sent any weather packets the latest 10 day(s).

<< 74 75 76 77 78 79 80 >>
Time Temp. Humidity Pressure Rain* Wind** Luminosity Snow
1777572067 8.33° C 56% 1012.9 hPa 0 mm 0.45 m/s, 271° - -
1777571768 8.33° C 56% 1013 hPa 0 mm 1.34 m/s, 262° - -
1777571466 7.78° C 57% 1013.2 hPa 0 mm 1.34 m/s, 245° - -
1777571166 7.78° C 58% 1013.3 hPa 0 mm 1.34 m/s, 288° - -
1777570867 7.22° C 59% 1013.4 hPa 0 mm 2.24 m/s, 295° - -
1777570567 7.22° C 60% 1013.5 hPa 0 mm 0.89 m/s, 7° - -
1777570267 6.67° C 60% 1013.7 hPa 0 mm 2.24 m/s, 249° - -
1777569968 7.22° C 60% 1013.8 hPa 0 mm 0.89 m/s, 250° - -
1777569666 6.67° C 61% 1013.9 hPa 0 mm 0.89 m/s, 240° - -
1777569366 6.11° C 62% 1014 hPa 0 mm 1.79 m/s, 274° - -
1777569066 6.11° C 62% 1014.1 hPa 0 mm 2.24 m/s, 20° - -
1777568767 6.11° C 63% 1014.2 hPa 0 mm 1.34 m/s, 228° - -
1777568467 6.11° C 63% 1014.3 hPa 0 mm 2.24 m/s, 287° - -
1777568168 6.11° C 63% 1014.4 hPa 0 mm 1.79 m/s, 222° - -
1777567865 5.56° C 65% 1014.5 hPa 0 mm 0 m/s - -
1777567566 5° C 65% 1014.6 hPa 0 mm 1.79 m/s, 269° - -
1777567266 5.56° C 65% 1014.8 hPa 0 mm 0.89 m/s, 359° - -
1777566967 5° C 65% 1014.9 hPa 0 mm 3.13 m/s, 248° - -
1777566667 5.56° C 64% 1015.1 hPa 0 mm 2.24 m/s, 236° - -
1777566368 5.56° C 64% 1015.2 hPa 0 mm 1.79 m/s, 23° - -
1777566065 5.56° C 64% 1015.4 hPa 0 mm 1.34 m/s, 307° - -
1777565766 5.56° C 63% 1015.5 hPa 0 mm 1.79 m/s, 309° - -
1777565466 6.11° C 62% 1015.4 hPa 0 mm 0.45 m/s, 305° - -
1777565167 6.11° C 61% 1015.5 hPa 0 mm 1.34 m/s, 301° - -
1777564867 5.56° C 61% 1015.6 hPa 0 mm 0.89 m/s, 288° - -

* Rain latest hour (hover to see other rain measurements)
** Current wind speed in m/s (hover to see current wind gust speed)